| time (UTC) | temp F | wind direction | speed MPH | gust MPH | rain 1hr in | rain 24hr in | rain mn in | humidity % | barometer mb |
| 20260505050843 | 62 | 341 | 1.0 | 4.0 | 0.00 | 0.00 | 0.00 | 61 | 1013.1 |
| 20260505050321 | 62 | 341 | 1.0 | 6.0 | 0.00 | 0.00 | 0.00 | 60 | 1013.1 |
| 20260505041313 | 62 | 341 | 0.0 | 5.0 | 0.00 | 0.00 | 0.00 | 60 | 1012.8 |
| 20260505040859 | 63 | 341 | 1.0 | 5.0 | 0.00 | 0.00 | 0.00 | 60 | 1012.8 |
| 20260505040335 | 63 | 341 | 1.0 | 5.0 | 0.00 | 0.00 | 0.00 | 59 | 1012.8 |
| 20260505035852 | 63 | 341 | 1.0 | 6.0 | 0.00 | 0.00 | 0.00 | 59 | 1012.6 |
| 20260505035312 | 63 | 341 | 1.0 | 7.0 | 0.00 | 0.00 | 0.00 | 59 | 1012.7 |
| 20260505034834 | 63 | 341 | 1.0 | 7.0 | 0.00 | 0.00 | 0.00 | 59 | 1012.6 |
| 20260505034332 | 63 | 341 | 1.0 | 5.0 | 0.00 | 0.00 | 0.00 | 60 | 1012.7 |
| 20260505033831 | 63 | 341 | 1.0 | 3.0 | 0.00 | 0.00 | 0.00 | 60 | 1012.6 |
| 20260505033330 | 63 | 341 | 0.0 | 2.0 | 0.00 | 0.00 | 0.00 | 60 | 1012.5 |
| 20260505032829 | 63 | 341 | 0.0 | 2.0 | 0.00 | 0.00 | 0.00 | 60 | 1012.5 |
| 20260505032328 | 63 | 341 | 0.0 | 3.0 | 0.00 | 0.00 | 0.00 | 60 | 1012.5 |
| 20260505031826 | 63 | 341 | 1.0 | 3.0 | 0.00 | 0.00 | 0.00 | 60 | 1012.6 |
| 20260505031326 | 64 | 341 | 1.0 | 3.0 | 0.00 | 0.00 | 0.00 | 59 | 1012.7 |
| 20260505030825 | 64 | 341 | 0.0 | 1.0 | 0.00 | 0.00 | 0.00 | 59 | 1012.7 |
| 20260505030323 | 64 | 341 | 0.0 | 3.0 | 0.00 | 0.00 | 0.00 | 58 | 1012.6 |
| 20260505025823 | 64 | 341 | 1.0 | 3.0 | 0.00 | 0.00 | 0.00 | 59 | 1012.6 |
| 20260505025346 | 64 | 341 | 0.0 | 1.0 | 0.00 | 0.00 | 0.00 | 59 | 1012.7 |
| 20260505024823 | 64 | 341 | 0.0 | 2.0 | 0.00 | 0.00 | 0.00 | 59 | 1012.7 |
| 20260505024321 | 64 | 341 | 0.0 | 2.0 | 0.00 | 0.00 | 0.00 | 59 | 1012.7 |
| 20260505023821 | 64 | 341 | 0.0 | 3.0 | 0.00 | 0.00 | 0.00 | 59 | 1012.8 |
| 20260505023321 | 64 | 341 | 0.0 | 3.0 | 0.00 | 0.00 | 0.00 | 59 | 1012.7 |
| 20260505022820 | 64 | 341 | 0.0 | 1.0 | 0.00 | 0.00 | 0.00 | 59 | 1012.8 |
| 20260505022318 | 64 | 341 | 0.0 | 1.0 | 0.00 | 0.00 | 0.00 | 59 | 1012.8 |
| 20260505021815 | 64 | 341 | 0.0 | 3.0 | 0.00 | 0.00 | 0.00 | 59 | 1012.7 |
| 20260505021314 | 63 | 341 | 0.0 | 3.0 | 0.00 | 0.00 | 0.00 | 60 | 1012.9 |
| 20260505020813 | 63 | 341 | 0.0 | 2.0 | 0.00 | 0.00 | 0.00 | 60 | 1012.7 |
| 20260505020339 | 63 | 341 | 0.0 | 2.0 | 0.00 | 0.00 | 0.00 | 63 | 1012.6 |
| 20260505015841 | 62 | 341 | 0.0 | 1.0 | 0.00 | 0.00 | 0.00 | 63 | 1012.6 |
| 20260505015319 | 62 | 341 | 0.0 | 1.0 | 0.00 | 0.00 | 0.00 | 64 | 1012.5 |
| 20260505014818 | 62 | 341 | 0.0 | 0.0 | 0.00 | 0.00 | 0.00 | 64 | 1012.5 |
| 20260505014319 | 63 | 341 | 0.0 | 0.0 | 0.00 | 0.00 | 0.00 | 64 | 1012.6 |
| 20260505013819 | 63 | 341 | 0.0 | 1.0 | 0.00 | 0.00 | 0.00 | 62 | 1012.7 |
| 20260505013318 | 63 | 341 | 0.0 | 1.0 | 0.00 | 0.00 | 0.00 | 62 | 1012.6 |
| 20260505012817 | 63 | 341 | 0.0 | 1.0 | 0.00 | 0.00 | 0.00 | 61 | 1012.4 |
| 20260505012318 | 64 | 341 | 0.0 | 1.0 | 0.00 | 0.00 | 0.00 | 61 | 1012.4 |
| 20260505011817 | 64 | 341 | 0.0 | 0.0 | 0.00 | 0.00 | 0.00 | 60 | 1012.3 |
| 20260505011318 | 64 | 341 | 0.0 | 0.0 | 0.00 | 0.00 | 0.00 | 59 | 1012.2 |
| 20260505010817 | 64 | 341 | 0.0 | 0.0 | 0.00 | 0.00 | 0.00 | 59 | 1012.3 |
| 20260505010317 | 65 | 341 | 0.0 | 0.0 | 0.00 | 0.00 | 0.00 | 59 | 1012.1 |
| 20260505005817 | 65 | 341 | 0.0 | 0.0 | 0.00 | 0.00 | 0.00 | 59 | 1012.0 |
| 20260505005313 | 66 | 341 | 0.0 | 0.0 | 0.00 | 0.00 | 0.00 | 58 | 1012.1 |
| 20260505004811 | 67 | 341 | 0.0 | 0.0 | 0.00 | 0.00 | 0.00 | 57 | 1012.0 |
| 20260505004337 | 67 | 341 | 0.0 | 0.0 | 0.00 | 0.00 | 0.00 | 55 | 1012.0 |
| 20260505003837 | 67 | 341 | 0.0 | 0.0 | 0.00 | 0.00 | 0.00 | 54 | 1012.1 |
| 20260505003337 | 68 | 341 | 0.0 | 1.0 | 0.00 | 0.00 | 0.00 | 54 | 1012.0 |
| 20260505002837 | 68 | 341 | 0.0 | 1.0 | 0.00 | 0.00 | 0.00 | 53 | 1012.1 |
| 20260505002336 | 69 | 341 | 0.0 | 1.0 | 0.00 | 0.00 | 0.00 | 53 | 1012.0 |
| 20260505001814 | 69 | 341 | 0.0 | 1.0 | 0.00 | 0.00 | 0.00 | 52 | 1012.1 |
| 20260505001341 | 70 | 341 | 0.0 | 1.0 | 0.00 | 0.00 | 0.00 | 51 | 1012.0 |
| 20260505000818 | 71 | 341 | 0.0 | 1.0 | 0.00 | 0.00 | 0.00 | 49 | 1011.9 |
| 20260505000358 | 72 | 341 | 0.0 | 1.0 | 0.00 | 0.00 | 0.00 | 48 | 1012.0 |
| 20260504235836 | 73 | 341 | 0.0 | 0.0 | 0.00 | 0.00 | 0.00 | 46 | 1012.0 |
| 20260504235335 | 74 | 341 | 0.0 | 1.0 | 0.00 | 0.00 | 0.00 | 45 | 1012.0 |
| 20260504234812 | 75 | 341 | 0.0 | 1.0 | 0.00 | 0.00 | 0.00 | 45 | 1012.0 |
| 20260504234337 | 75 | 341 | 0.0 | 2.0 | 0.00 | 0.00 | 0.00 | 44 | 1012.0 |
| 20260504233835 | 76 | 341 | 0.0 | 3.0 | 0.00 | 0.00 | 0.00 | 44 | 1012.0 |
| 20260504233316 | 76 | 341 | 0.0 | 3.0 | 0.00 | 0.00 | 0.00 | 44 | 1012.1 |
| 20260504232816 | 76 | 341 | 0.0 | 1.0 | 0.00 | 0.00 | 0.00 | 44 | 1011.9 |
| 20260504232315 | 75 | 341 | 0.0 | 2.0 | 0.00 | 0.00 | 0.00 | 45 | 1011.8 |
| 20260504231815 | 76 | 341 | 0.0 | 2.0 | 0.00 | 0.00 | 0.00 | 44 | 1011.7 |
| 20260504231314 | 76 | 341 | 0.0 | 2.0 | 0.00 | 0.00 | 0.00 | 44 | 1011.8 |
| 20260504230836 | 76 | 341 | 0.0 | 1.0 | 0.00 | 0.00 | 0.00 | 44 | 1011.8 |
| 20260504230336 | 76 | 341 | 0.0 | 5.0 | 0.00 | 0.00 | 0.00 | 43 | 1011.8 |
| 20260504225835 | 76 | 341 | 1.0 | 6.0 | 0.00 | 0.00 | 0.00 | 43 | 1011.8 |
| 20260504225313 | 76 | 341 | 1.0 | 6.0 | 0.00 | 0.00 | 0.00 | 44 | 1011.9 |
| 20260504224811 | 76 | 341 | 1.0 | 6.0 | 0.00 | 0.00 | 0.00 | 43 | 1011.9 |
| 20260504224312 | 77 | 341 | 1.0 | 6.0 | 0.00 | 0.00 | 0.00 | 43 | 1011.9 |
| 20260504223836 | 77 | 341 | 1.0 | 6.0 | 0.00 | 0.00 | 0.00 | 42 | 1012.0 |
| 20260504223316 | 77 | 341 | 2.0 | 5.0 | 0.00 | 0.00 | 0.00 | 42 | 1012.0 |
| 20260504222814 | 77 | 341 | 1.0 | 7.0 | 0.00 | 0.00 | 0.00 | 42 | 1011.9 |
| 20260504222340 | 77 | 341 | 1.0 | 5.0 | 0.00 | 0.00 | 0.00 | 42 | 1011.9 |
| 20260504221813 | 77 | 341 | 1.0 | 5.0 | 0.00 | 0.00 | 0.00 | 44 | 1012.0 |
| 20260504221312 | 76 | 341 | 3.0 | 7.0 | 0.00 | 0.00 | 0.00 | 44 | 1011.9 |
| 20260504220839 | 75 | 341 | 3.0 | 7.0 | 0.00 | 0.00 | 0.00 | 44 | 1012.0 |
| 20260504220337 | 75 | 341 | 2.0 | 5.0 | 0.00 | 0.00 | 0.00 | 45 | 1012.1 |
| 20260504215837 | 75 | 341 | 1.0 | 5.0 | 0.00 | 0.00 | 0.00 | 43 | 1012.0 |
| 20260504215335 | 75 | 341 | 2.0 | 8.0 | 0.00 | 0.00 | 0.00 | 43 | 1012.1 |
| 20260504214812 | 75 | 341 | 3.0 | 7.0 | 0.00 | 0.00 | 0.00 | 42 | 1011.9 |
| 20260504214312 | 75 | 341 | 2.0 | 8.0 | 0.00 | 0.00 | 0.00 | 43 | 1011.9 |
| 20260504213812 | 75 | 341 | 4.0 | 7.0 | 0.00 | 0.00 | 0.00 | 43 | 1012.0 |
| 20260504213311 | 75 | 341 | 3.0 | 7.0 | 0.00 | 0.00 | 0.00 | 41 | 1011.9 |
| 20260504212853 | 75 | 341 | 3.0 | 10.0 | 0.00 | 0.00 | 0.00 | 41 | 1012.0 |
| 20260504212332 | 76 | 341 | 3.0 | 10.0 | 0.00 | 0.00 | 0.00 | 41 | 1011.8 |
| 20260504211831 | 76 | 341 | 4.0 | 10.0 | 0.00 | 0.00 | 0.00 | 42 | 1011.8 |
| 20260504211332 | 76 | 341 | 3.0 | 8.0 | 0.00 | 0.00 | 0.00 | 42 | 1011.8 |
| 20260504210858 | 75 | 341 | 4.0 | 10.0 | 0.00 | 0.00 | 0.00 | 41 | 1011.9 |
| 20260504210337 | 75 | 341 | 3.0 | 11.0 | 0.00 | 0.00 | 0.00 | 42 | 1011.8 |
| 20260504205815 | 75 | 341 | 4.0 | 9.0 | 0.00 | 0.00 | 0.00 | 42 | 1011.8 |
| 20260504205315 | 75 | 341 | 3.0 | 8.0 | 0.00 | 0.00 | 0.00 | 41 | 1011.7 |
| 20260504204813 | 75 | 341 | 4.0 | 11.0 | 0.00 | 0.00 | 0.00 | 41 | 1011.8 |
| 20260504204313 | 75 | 341 | 4.0 | 11.0 | 0.00 | 0.00 | 0.00 | 40 | 1011.8 |
| 20260504203813 | 76 | 341 | 2.0 | 9.0 | 0.00 | 0.00 | 0.00 | 40 | 1011.8 |
| 20260504203314 | 76 | 341 | 4.0 | 12.0 | 0.00 | 0.00 | 0.00 | 40 | 1011.9 |
| 20260504202837 | 76 | 341 | 3.0 | 12.0 | 0.00 | 0.00 | 0.00 | 39 | 1011.8 |
| 20260504202339 | 75 | 341 | 5.0 | 8.0 | 0.00 | 0.00 | 0.00 | 41 | 1011.8 |
| 20260504201838 | 74 | 341 | 3.0 | 7.0 | 0.00 | 0.00 | 0.00 | 38 | 1011.8 |
| 20260504201335 | 74 | 341 | 2.0 | 8.0 | 0.00 | 0.00 | 0.00 | 39 | 1012.0 |
| 20260504200813 | 74 | 341 | 3.0 | 10.0 | 0.00 | 0.00 | 0.00 | 39 | 1012.1 |
| 20260504200340 | 74 | 341 | 4.0 | 10.0 | 0.00 | 0.00 | 0.00 | 39 | 1012.2 |
| 20260504195818 | 74 | 341 | 3.0 | 8.0 | 0.00 | 0.00 | 0.00 | 38 | 1012.2 |
| 20260504195317 | 75 | 341 | 4.0 | 8.0 | 0.00 | 0.00 | 0.00 | 37 | 1012.2 |
| 20260504194816 | 75 | 341 | 2.0 | 11.0 | 0.00 | 0.00 | 0.00 | 39 | 1012.3 |
| 20260504194314 | 75 | 341 | 4.0 | 12.0 | 0.00 | 0.00 | 0.00 | 36 | 1012.4 |
| 20260504193814 | 76 | 341 | 5.0 | 12.0 | 0.00 | 0.00 | 0.00 | 36 | 1012.5 |
| 20260504193335 | 77 | 341 | 4.0 | 9.0 | 0.00 | 0.00 | 0.00 | 35 | 1012.4 |
| 20260504192834 | 77 | 341 | 3.0 | 9.0 | 0.00 | 0.00 | 0.00 | 34 | 1012.4 |
| 20260504192318 | 77 | 341 | 3.0 | 9.0 | 0.00 | 0.00 | 0.00 | 37 | 1012.5 |
| 20260504191818 | 77 | 341 | 4.0 | 8.0 | 0.00 | 0.00 | 0.00 | 36 | 1012.5 |
| 20260504191316 | 77 | 341 | 3.0 | 11.0 | 0.00 | 0.00 | 0.00 | 37 | 1012.6 |
| 20260504190816 | 77 | 341 | 5.0 | 11.0 | 0.00 | 0.00 | 0.00 | 34 | 1012.7 |
| 20260504190319 | 77 | 341 | 4.0 | 11.0 | 0.00 | 0.00 | 0.00 | 35 | 1012.9 |
| 20260504185817 | 77 | 341 | 5.0 | 11.0 | 0.00 | 0.00 | 0.00 | 35 | 1013.0 |
| 20260504185321 | 77 | 341 | 3.0 | 8.0 | 0.00 | 0.00 | 0.00 | 37 | 1012.9 |
| 20260504184841 | 76 | 341 | 3.0 | 11.0 | 0.00 | 0.00 | 0.00 | 36 | 1013.1 |
| 20260504184319 | 76 | 341 | 6.0 | 12.0 | 0.00 | 0.00 | 0.00 | 35 | 1013.0 |
| 20260504183845 | 76 | 341 | 6.0 | 12.0 | 0.00 | 0.00 | 0.00 | 36 | 1013.0 |
| 20260504183321 | 76 | 341 | 4.0 | 10.0 | 0.00 | 0.00 | 0.00 | 36 | 1013.2 |
| 20260504182820 | 76 | 341 | 2.0 | 10.0 | 0.00 | 0.00 | 0.00 | 36 | 1013.2 |
| 20260504182320 | 76 | 341 | 4.0 | 12.0 | 0.00 | 0.00 | 0.00 | 37 | 1013.2 |
| 20260504181819 | 76 | 341 | 4.0 | 12.0 | 0.00 | 0.00 | 0.00 | 36 | 1013.1 |
| 20260504181319 | 76 | 341 | 3.0 | 7.0 | 0.00 | 0.00 | 0.00 | 36 | 1013.2 |
| 20260504180817 | 76 | 341 | 2.0 | 10.0 | 0.00 | 0.00 | 0.00 | 36 | 1013.2 |
| 20260504180316 | 75 | 341 | 3.0 | 10.0 | 0.00 | 0.00 | 0.00 | 36 | 1013.3 |
| 20260504175816 | 74 | 341 | 5.0 | 9.0 | 0.00 | 0.00 | 0.00 | 37 | 1013.5 |
| 20260504175337 | 74 | 341 | 4.0 | 10.0 | 0.00 | 0.00 | 0.00 | 37 | 1013.6 |
| 20260504174835 | 74 | 341 | 4.0 | 11.0 | 0.00 | 0.00 | 0.00 | 38 | 1013.5 |
| 20260504174334 | 74 | 341 | 4.0 | 11.0 | 0.00 | 0.00 | 0.00 | 37 | 1013.5 |
| 20260504173831 | 75 | 341 | 2.0 | 7.0 | 0.00 | 0.00 | 0.00 | 38 | 1013.5 |
| 20260504173311 | 74 | 341 | 2.0 | 9.0 | 0.00 | 0.00 | 0.00 | 39 | 1013.7 |
| 20260504172837 | 74 | 341 | 5.0 | 10.0 | 0.00 | 0.00 | 0.00 | 37 | 1013.8 |
| 20260504172336 | 73 | 341 | 2.0 | 10.0 | 0.00 | 0.00 | 0.00 | 39 | 1013.8 |
| 20260504171816 | 74 | 341 | 2.0 | 7.0 | 0.00 | 0.00 | 0.00 | 40 | 1013.9 |
| 20260504171315 | 73 | 341 | 1.0 | 9.0 | 0.00 | 0.00 | 0.00 | 40 | 1014.0 |
| 20260504170821 | 73 | 341 | 4.0 | 9.0 | 0.00 | 0.00 | 0.00 | 38 | 1014.2 |
| 20260504170321 | 72 | 341 | 3.0 | 9.0 | 0.00 | 0.00 | 0.00 | 40 | 1014.3 |
| 20260504160316 | 69 | 341 | 2.0 | 6.0 | 0.00 | 0.00 | 0.00 | 45 | 1015.2 |
| 20260504150812 | 66 | 341 | 3.0 | 8.0 | 0.00 | 0.00 | 0.00 | 46 | 1015.4 |
| 20260504150312 | 66 | 341 | 2.0 | 9.0 | 0.00 | 0.00 | 0.00 | 45 | 1015.4 |
| 20260504141312 | 63 | 341 | 3.0 | 7.0 | 0.00 | 0.00 | 0.00 | 53 | 1015.6 |
| 20260504140832 | 63 | 341 | 1.0 | 6.0 | 0.00 | 0.00 | 0.00 | 54 | 1015.5 |
| 20260504140331 | 62 | 341 | 1.0 | 6.0 | 0.00 | 0.00 | 0.00 | 53 | 1015.5 |
| 20260504130813 | 56 | 341 | 1.0 | 5.0 | 0.00 | 0.00 | 0.00 | 63 | 1015.9 |
| 20260504130313 | 55 | 341 | 2.0 | 4.0 | 0.00 | 0.00 | 0.00 | 66 | 1015.9 |
| 20260504110330 | 49 | 341 | 1.0 | 6.0 | 0.00 | 0.00 | 0.00 | 66 | 1015.7 |
| 20260504100325 | 48 | 341 | 0.0 | 2.0 | 0.00 | 0.00 | 0.00 | 67 | 1015.5 |
| 20260504081819 | 48 | 341 | 1.0 | 2.0 | 0.00 | 0.00 | 0.00 | 70 | 1016.3 |
| 20260504081325 | 48 | 341 | 0.0 | 2.0 | 0.00 | 0.00 | 0.00 | 69 | 1016.3 |
| 20260504080823 | 48 | 341 | 0.0 | 2.0 | 0.00 | 0.00 | 0.00 | 69 | 1016.1 |
| 20260504080322 | 48 | 341 | 0.0 | 3.0 | 0.00 | 0.00 | 0.00 | 69 | 1016.2 |
| 20260504070345 | 49 | 341 | 1.0 | 3.0 | 0.00 | 0.00 | 0.00 | 65 | 1016.0 |